Kuchera_Ratio
0.0 0.0 0.0 0.0 0.0 0.0 0.0 0.0 0.0 0.0 0.0 0.0 0.0 0.0 0.0 0.0 0.0 0.0 0.0 0.0 0.0 0.0 0.0 0.0 0.0 0.0 0.0 0.0 0.0 0.0 0.0 0.0 0.0 0.0 0.0 0.0 0.0 0.0 0.0 0.0 0.0 0.0 0.0 0.0 0.0 0.0 0.0 0.0 0.0 0.0 0.0 0.0
0.0 0.0 0.0 0.0 0.0 0.0 0.0 0.0 0.0 0.0 0.0 0.0 0.0 0.0 0.0 0.0 0.0 0.0 0.0 0.0 0.0 0.0 0.0 0.0 0.0 0.0 0.0 0.0 0.0 0.0 0.0 0.0 0.0 0.0 0.0 0.0 0.0 0.0 0.0 0.0 0.0 0.0 0.0 0.0 0.0 0.0 0.0 0.0 0.0 0.0 0.0 0.0
0.0 0.0 0.0 0.0 0.0 0.0 0.0 0.0 0.0 0.0 0.0 0.0 0.0 0.0 0.0 0.0 0.0 0.0 0.0 0.0 0.0 0.0 0.0 0.0 0.0 0.0 0.0 0.0 0.0 0.0 0.0 0.0 0.0 0.0 0.0 0.0 0.0 0.0 0.0 0.0 0.0 0.0 0.0 0.0 0.0 0.0 0.0 0.0 0.0 0.0 0.0 0.0
0.0 0.0 0.0 0.0 0.0 0.0 0.0 0.0 0.0 0.0 0.0 0.0 0.0 0.0 0.0 0.0 0.0 0.0 0.0 0.0 0.0 0.0 0.0 0.0 0.0 0.0 0.0 0.0 0.0 0.0 0.0 0.0 0.0 0.0 0.0 0.0 0.0 0.0 0.0 0.0 0.0 0.0 0.0 0.0 0.0 0.0 0.0 0.0 0.0 0.0 0.0 0.0
0.0 0.0 0.0 0.0 0.0 0.0 0.0 0.0 0.0 0.0 0.0 0.0 0.0 0.0 0.0 0.0 0.0 0.0 0.0 0.0 0.0 0.0 0.0 0.0 0.0 0.0 0.0 0.0 0.0 0.0 0.0 0.0 0.0 0.0 0.0 0.0 0.0 0.0 0.0 0.0 0.0 0.0 0.0 0.0 0.0 0.0 0.0 0.0 0.0 0.0 0.0 0.0
0.0 0.0 0.0 0.0 0.0 0.0 0.0 0.0 0.0 0.0 0.0 0.0 0.0 0.0 0.0 0.0 0.0 0.0 0.0 0.0 0.0 0.0 0.0 0.0 0.0 0.0 0.0 0.0 0.0 0.0 0.0 0.0 0.0 0.0 0.0 0.0 0.0 0.0 0.0 0.0 0.0 0.0 0.0 0.0 0.0 0.0 0.0 0.0 0.0 0.0 0.0 0.0
0.0 0.0 0.0 0.0 0.0 0.0 0.0 0.0 0.0 0.0 0.0 0.0 0.0 0.0 0.0 0.0 0.0 0.0 0.0 0.0 0.0 0.0 0.0 0.0 0.0 0.0 0.0 0.0 0.0 0.0 0.0 0.0 0.0 0.0 0.0 0.0 0.0 0.0 0.0 0.0 0.0 0.0 0.0 0.0 0.0 0.0 0.0 0.0 0.0 0.0 0.0 0.0
0.0 0.0 0.0 0.0 0.0 0.0 0.0 0.0 0.0 0.0 0.0 0.0 0.0 0.0 0.0 0.0 0.0 0.0 0.0 0.0 0.0 0.0 0.0 0.0 0.0 0.0 0.0 0.0 0.0 0.0 0.0 0.0 0.0 0.0 0.0 0.0 0.0 0.0 0.0 0.0 0.0 0.0 0.0 0.0 0.0 0.0 0.0 0.0 0.0 0.0 0.0 0.0
0.0 0.0 0.0 0.0 0.0 0.0 0.0 0.0 0.0 0.0 0.0 0.0 0.0 0.2 0.2 0.3 0.1 0.0 0.1 0.0 0.0 0.0 0.0 0.1 0.0 0.0 0.0 0.2 0.4 0.0 0.5 0.6 0.0 0.0 0.0 0.0 0.0 0.0 0.0 0.0 0.0 0.0 0.0 0.0 0.0 0.0 0.0 0.0 0.0 0.0 0.0 0.0
0.0 0.0 0.0 0.0 0.0 0.0 0.0 0.0 0.1 0.1 0.2 0.4 0.6 0.6 0.5 0.4 0.2 0.3 0.4 0.4 0.4 0.5 0.8 1.1 1.3 1.5 1.5 1.9 2.1 2.1 2.0 1.9 2.0 2.1 2.2 1.8 1.2 1.0 0.8 0.4 0.0 0.0 0.0 0.0 0.0 0.0 0.0 0.0 0.0 0.0 0.0 0.0
0.0 0.0 0.0 0.0 0.0 0.0 0.6 1.3 1.0 1.2 1.6 1.7 1.6 1.4 1.1 1.3 1.4 1.3 1.2 1.2 1.2 1.4 2.1 2.6 3.1 3.4 3.6 3.8 3.9 3.9 4.2 3.8 3.7 3.7 3.7 3.7 3.4 2.9 2.6 2.2 1.6 1.0 0.7 0.6 0.7 0.4 0.0 0.0 0.0 0.0 0.0 0.0
0.0 0.0 0.0 0.0 0.0 0.4 0.0 1.7 2.2 2.8 3.1 2.7 2.7 2.6 2.5 2.1 2.7 2.7 2.6 2.7 2.7 3.1 3.6 4.0 4.6 4.8 5.0 5.2 5.2 4.9 5.9 5.7 5.3 5.1 5.1 5.0 4.9 4.5 4.4 4.1 3.4 2.8 2.4 1.9 1.9 2.4 1.9 1.2 0.7 0.7 0.3 0.0
1.0 1.4 1.9 2.5 2.7 2.7 0.0 3.2 3.4 3.7 3.2 2.9 3.2 3.2 3.6 3.7 4.2 4.4 4.4 4.6 4.8 4.9 5.0 5.4 6.0 6.1 6.0 6.4 6.7 6.1 6.9 6.9 6.5 6.4 6.3 6.3 6.1 5.9 5.8 5.6 5.1 4.6 4.6 3.7 3.1 3.6 3.5 3.1 2.5 2.0 1.7 1.2
3.2 3.2 3.1 3.4 3.5 3.7 2.9 3.7 4.2 3.8 3.5 3.7 3.9 4.5 5.5 5.6 6.2 6.7 6.8 6.9 6.9 6.7 6.7 7.0 7.3 7.5 7.7 8.0 7.7 7.4 7.2 7.1 6.9 6.6 6.4 6.4 6.1 5.8 5.7 5.3 5.3 4.8 4.3 4.3 4.4 4.2 3.3 2.9 2.8 2.6 2.5 2.3
3.5 3.6 3.7 4.1 4.0 3.8 3.8 4.4 4.6 4.6 5.1 5.6 6.2 7.4 7.9 7.7 6.6 7.5 9.0 9.1 9.1 9.0 9.0 8.9 8.7 8.4 8.3 8.2 8.2 8.1 7.9 7.7 7.6 7.4 7.1 6.9 6.6 6.4 6.1 5.6 5.3 4.8 4.1 3.6 3.8 4.1 3.7 3.2 2.9 2.7 2.6 2.4
3.7 4.2 4.9 5.2 5.1 5.0 5.3 5.6 5.7 5.8 6.4 6.9 8.1 8.5 8.7 8.8 9.0 7.2 10.1 10.0 9.8 9.6 9.3 9.0 8.8 8.6 8.5 8.4 8.4 8.6 8.6 8.6 8.6 8.3 8.2 8.1 7.9 7.7 7.4 6.9 6.5 6.1 5.3 4.5 4.1 4.1 4.3 4.1 3.5 3.2 3.0 2.7
3.8 4.7 5.6 6.0 6.3 6.7 6.6 7.2 7.3 7.7 8.1 8.6 8.7 8.6 9.1 9.2 9.0 8.9 10.3 10.2 10.1 9.9 9.9 9.6 9.4 9.1 9.1 9.1 9.0 9.1 9.3 9.4 9.4 9.3 9.3 9.1 8.9 8.7 8.4 8.1 7.7 7.5 7.0 6.3 5.6 5.0 4.9 4.7 4.3 4.1 3.6 3.4
4.4 5.4 6.2 6.7 7.3 7.4 7.7 7.9 8.0 8.4 8.4 8.6 9.0 9.2 9.5 9.6 9.2 10.1 10.6 10.6 10.5 10.4 10.6 10.4 10.3 10.2 10.1 10.1 9.9 10.0 10.1 10.1 10.2 10.1 10.0 9.8 9.4 9.3 9.0 8.6 8.3 8.0 7.6 7.2 6.8 6.1 5.8 5.4 5.1 4.9 4.4 4.2
6.0 6.9 7.6 8.0 8.4 8.3 8.2 8.6 8.8 8.8 8.7 9.0 9.5 9.9 10.3 10.4 9.5 10.4 11.2 11.4 11.3 11.1 11.3 11.1 11.0 11.3 11.3 11.4 11.4 11.5 11.6 11.4 11.4 11.3 11.1 11.0 10.4 9.9 9.8 9.6 9.3 8.9 8.4 7.8 7.4 7.0 6.6 6.1 5.8 5.6 5.2 4.9
7.7 8.2 8.7 9.1 7.1 8.7 8.6 8.9 9.1 9.2 9.1 9.3 10.0 10.4 10.8 11.2 10.1 10.4 11.7 11.7 12.2 12.5 12.4 12.6 12.5 12.6 12.5 12.6 12.6 12.5 12.6 12.5 12.5 12.3 12.1 12.2 12.1 11.6 10.8 10.4 10.3 10.2 9.8 8.9 8.1 7.9 7.5 7.2 7.0 6.4 5.8 5.5
8.7 9.2 9.4 9.7 9.5 9.3 9.2 9.3 9.3 9.0 9.2 9.7 10.3 10.8 11.4 12.1 10.3 11.4 12.1 12.2 12.5 12.8 12.6 13.0 13.7 13.7 13.6 13.4 13.6 13.5 13.5 13.5 13.4 13.4 12.9 12.7 12.9 12.9 12.5 12.2 12.0 11.4 11.0 10.2 9.2 8.6 8.4 8.3 7.9 7.3 7.0 6.6
9.8 10.3 10.4 10.2 10.0 9.6 9.9 9.9 9.9 9.0 9.3 10.2 10.5 11.3 12.1 12.5 12.2 11.4 12.7 12.8 12.7 13.2 12.4 13.3 14.0 14.3 14.1 14.0 14.4 14.4 14.2 14.4 13.6 13.9 14.1 13.8 13.6 13.5 13.8 13.6 13.3 12.9 12.4 11.7 10.4 9.5 9.3 9.3 8.8 8.2 7.9 7.7
10.7 11.1 11.4 11.4 11.2 11.4 11.0 11.2 10.8 9.6 9.8 10.4 10.9 12.0 12.4 12.7 12.8 12.4 13.1 13.1 13.1 13.6 13.6 14.0 14.3 14.6 14.5 14.2 14.7 14.8 14.9 14.9 14.5 14.4 14.5 15.2 14.7 14.0 14.3 14.4 14.8 14.6 13.9 13.1 12.4 11.8 10.9 10.3 10.1 9.8 9.6 9.2
11.1 11.4 11.7 12.1 12.4 12.3 12.3 12.5 12.0 10.9 10.7 11.0 11.9 12.5 12.8 13.0 13.4 13.6 13.2 13.4 13.6 13.9 13.8 14.6 14.9 15.1 14.7 14.8 14.9 15.3 15.7 15.6 15.4 15.7 15.6 15.7 15.1 15.7 14.6 13.9 14.5 14.6 14.9 14.5 13.6 13.2 12.8 12.5 12.3 11.9 9.6 9.6
11.4 12.0 12.3 12.6 13.1 13.3 13.4 13.1 12.6 12.4 12.0 12.1 12.6 12.8 13.1 13.4 13.7 14.0 14.0 13.5 14.2 14.4 14.3 15.0 15.3 15.4 15.4 15.1 15.1 15.5 15.7 15.5 15.5 14.9 15.4 15.5 15.3 16.0 16.4 16.2 14.8 15.3 14.4 15.7 14.7 13.8 12.9 12.6 12.9 11.2 9.9 11.1
12.2 12.6 13.2 13.5 14.0 14.1 14.2 14.7 15.0 14.9 12.8 12.8 13.3 13.1 13.3 13.6 13.9 14.3 14.3 14.2 14.4 14.4 15.2 15.6 15.8 15.8 16.0 15.7 15.7 15.2 15.4 15.1 14.7 15.5 15.8 15.7 17.0 15.7 16.6 17.4 15.4 15.9 15.0 17.4 17.0 16.2 14.3 13.0 13.1 12.8 12.0 13.2
12.7 12.7 12.7 13.0 14.7 13.4 15.2 13.4 13.0 13.3 13.0 13.1 13.7 13.5 13.6 13.9 14.2 14.6 14.6 15.0 14.6 14.9 15.5 15.9 16.2 16.2 16.2 16.4 15.6 16.5 16.6 16.2 16.2 16.0 16.5 16.5 17.2 17.6 16.5 16.7 15.5 16.1 15.6 18.9 17.1 17.3 17.3 16.4 15.8 14.7 14.0 13.2
12.3 12.6 12.8 13.1 13.4 13.5 13.7 15.3 13.2 13.5 13.4 13.7 14.3 14.0 13.9 14.2 14.5 14.8 15.0 15.4 15.7 15.4 15.7 15.9 16.4 16.5 16.6 16.8 16.3 16.9 17.3 17.1 17.1 16.7 17.1 17.2 17.1 17.0 19.6 17.9 17.7 15.3 16.3 16.9 17.5 20.6 20.3 19.7 17.9 18.3 17.0 16.0
12.3 12.9 13.1 13.6 13.7 13.7 13.9 13.9 14.0 16.0 15.8 14.7 14.9 14.7 14.5 14.6 14.7 15.0 15.4 15.7 16.0 15.7 16.1 16.2 16.6 17.0 16.9 17.3 17.1 16.7 17.3 17.5 17.5 17.5 17.4 17.5 17.7 18.2 18.9 19.6 18.1 17.6 16.1 16.7 15.4 18.6 20.3 20.8 20.4 20.1 19.0 17.8
13.0 13.4 15.3 16.2 16.0 16.4 16.3 17.1 17.1 17.2 17.6 17.3 17.1 16.7 15.1 14.9 14.9 15.3 15.6 15.7 16.2 16.4 15.7 16.6 16.9 17.4 17.5 17.7 17.4 17.0 17.5 17.7 17.7 18.0 18.1 17.7 17.8 18.7 17.9 18.7 19.4 20.1 16.7 16.2 16.5 16.5 16.9 17.4 21.8 21.0 20.4 18.7
13.5 15.4 15.6 15.8 16.2 16.4 17.0 17.6 16.5 16.7 16.8 16.7 15.6 15.7 15.7 15.4 15.3 15.6 15.9 15.9 16.3 16.6 16.8 16.7 17.1 17.8 17.7 17.7 18.0 16.5 17.7 18.3 18.2 18.2 18.3 17.6 18.3 18.5 17.8 18.5 21.2 20.4 19.7 17.7 18.3 16.6 16.8 16.9 17.2 17.5 19.8 21.4